Location: Bernâtre
(50.1974°N, 2.0915°E)
Time: 22:36:48
(UTC+00:00)

Cosmos 1758 Rocket - Pass Details

Date: 09 December 2025
Orbit: 595 x 629 km, 82.5° (Epoch: 10 April)

Event Time Altitude Azimuth Distance (km) Brightness Sun altitude
Rises 16:53:06 0° 350° (N) 2,870 6.8 -9.7°
Reaches altitude 10° 16:55:20 10° 350° (N) 1,957 6.0 -10.0°
Maximum altitude 16:59:40 87° 78° (ENE) 606 3.5 -10.7°
Drops below altitude 10° 17:03:56 10° 170° (S) 1,928 6.3 -11.3°
Sets 17:06:07 0° 171° (S) 2,823 7.1 -11.6°
